[[{"header":{"parameterUnit":"m.s-1","parameterCategory":2,"la1":30.2991,"la2":30.254,"lo1":-89.0895,"lo2":-89.0444,"dy":0.0017,"dx":0.0017,"nx":28,"ny":28,"refTime":"2024-08-27T09:00:00:Z","depth":"0","parameterNumber":2,"parameterNumberName":"U-component_of_CURRENTS"},"data":[0,0,0,0,0,0,0,0,0,0,0,0,0,0,0,0,0,0,0,0,0,0,0,0,0,0,0,0,0,0,0,0,0,0,0,0,0,0,0,0,0,0,0,0,0,0,0,0,0,0,0,0,0,0,0,0,0,0,-0.3328,-0.3328,0,-0.334,-0.334,-0.334,-0.3266,-0.3264,-0.3263,-0.3261,-0.3147,-0.3145,-0.3144,0,0,0,0,0,0,0,0,0,0,0,0,0,-0.3176,-0.3179,-0.3327,-0.3328,-0.3329,-0.3341,-0.334,-0.334,-0.3266,-0.3264,-0.3262,-0.3261,-0.3147,-0.3146,-0.3144,0,0,0,0,0,0,0,0,0,0,0,0,0,-0.3215,-0.318,-0.3327,-0.3298,-0.3296,-0.3341,-0.334,-0.334,-0.3266,-0.3264,-0.3262,-0.326,-0.3148,-0.3146,-0.3143,-0.3175,0,0,-0.3136,-0.3135,0,0,0,0,0,0,0,0,-0.3213,-0.322,-0.3302,-0.33,-0.3298,-0.3304,-0.3245,-0.328,-0.3267,-0.3271,-0.3261,-0.3259,-0.3194,-0.3187,-0.3188,-0.317,-0.3165,-0.3136,-0.3134,-0.3133,-0.3133,0,0,0,0,0,0,0,-0.321,-0.3218,-0.3326,-0.3303,-0.3301,-0.3263,-0.3266,-0.3251,-0.3238,-0.3271,-0.3267,-0.3279,-0.319,-0.3191,-0.3185,-0.3163,-0.3136,-0.3134,-0.3132,-0.3131,-0.3198,-0.3201,0,0,0,0,0,0,-0.3228,-0.3217,-0.3326,-0.3327,-0.3256,-0.3268,-0.3271,-0.33,-0.3241,-0.3233,-0.3281,-0.3276,-0.3196,-0.3187,-0.318,-0.3259,-0.3133,-0.3131,-0.313,-0.3195,-0.3199,-0.3202,0,0,0,0,0,0,-0.3225,-0.3238,-0.3326,-0.3275,-0.3285,-0.3275,-0.3306,-0.3301,-0.3298,-0.3251,-0.3238,-0.3283,-0.3194,-0.3183,-0.3192,-0.3251,-0.313,-0.3128,-0.3191,-0.3196,-0.32,-0.3387,0,0,0,0,0,0,-0.3221,-0.3237,-0.326,-0.3278,-0.3289,-0.3373,-0.3309,-0.3304,-0.3312,-0.3305,-0.3249,-0.3236,-0.3191,-0.3196,-0.3189,-0.3246,-0.3126,-0.3187,-0.3193,-0.3199,-0.3377,-0.3398,-0.3415,0,0,0,0,0,-0.3215,-0.3265,-0.3261,-0.3274,-0.3322,-0.3376,-0.3378,-0.3356,-0.3315,-0.3338,-0.3303,-0.3238,-0.3229,-0.3197,-0.3188,-0.3246,-0.3184,-0.3191,-0.3198,-0.3368,-0.3394,-0.3415,0,0,0,0,0,0,-0.3201,-0.3264,-0.3259,-0.3322,-0.3355,-0.3366,-0.3386,-0.3368,-0.336,-0.3339,-0.3278,-0.3266,-0.3294,-0.3249,-0.3216,-0.3284,-0.3196,-0.3202,-0.3329,-0.3352,-0.3371,-0.3345,-0.3124,0,0,0,0,0,-0.3216,-0.3273,-0.3314,-0.3363,-0.3384,-0.3384,-0.3398,-0.3388,-0.3387,-0.3379,-0.3348,-0.3319,-0.3322,-0.3318,-0.3302,-0.3343,-0.3229,-0.3374,-0.3394,-0.341,-0.3386,-0.3268,-0.3272,-0.3226,-0.3226,-0.3225,0,0,-0.3223,-0.3265,-0.3295,-0.3365,-0.338,-0.345,-0.3385,-0.3421,-0.347,-0.3369,-0.3413,-0.338,-0.3346,-0.3393,-0.3402,-0.3361,-0.3374,-0.342,-0.3434,-0.3399,-0.3275,-0.3279,-0.3282,-0.3231,-0.323,-0.3229,0,0,-0.3275,-0.3307,-0.3371,-0.3424,-0.3473,-0.3489,-0.3506,-0.353,-0.3527,-0.3574,-0.3518,-0.3526,-0.3523,-0.3523,-0.3519,-0.3636,-0.3475,-0.3631,-0.3713,-0.3601,-0.3602,-0.3601,-0.3494,-0.3482,-0.3647,-0.3647,-0.3647,0,-0.3271,-0.3354,-0.3395,-0.3481,-0.3509,-0.3518,-0.3574,-0.3619,-0.364,-0.3611,-0.3608,-0.3588,-0.3592,-0.362,-0.3688,-0.3681,-0.3564,-0.3631,-0.3621,-0.3618,-0.3614,-0.3503,-0.3487,-0.3657,-0.3656,-0.3655,-0.3654,0,-0.3385,-0.3443,-0.3487,-0.3599,-0.3652,-0.3696,-0.3764,-0.3787,-0.3776,-0.3777,-0.3777,-0.3787,-0.374,-0.3795,-0.3792,-0.3788,-0.3699,-0.3653,-0.3554,-0.3629,-0.3509,-0.3489,-0.3671,-0.3668,-0.3665,-0.3662,0,0,-0.3336,-0.3523,-0.3522,-0.355,-0.3691,-0.3713,-0.3828,-0.3856,-0.3825,-0.3899,-0.3833,-0.3957,-0.3888,-0.3881,-0.3873,-0.3844,-0.3788,-0.3752,-0.3742,-0.363,-0.3505,-0.345,-0.3422,-0.3706,-0.3703,-0.3701,-0.3442,0,-0.3368,-0.349,-0.3599,-0.3685,-0.3724,-0.3791,-0.3859,-0.3898,-0.3901,-0.3856,-0.3885,-0.3849,-0.3947,-0.3892,-0.3895,-0.3778,-0.3736,-0.386,-0.3459,-0.3447,-0.3376,-0.3399,-0.3271,-0.3028,-0.3421,-0.3417,-0.3415,0,-0.3403,-0.346,-0.3543,-0.3618,-0.3636,-0.3707,-0.3694,-0.3768,-0.3774,-0.3758,-0.3762,-0.3738,-0.3761,-0.3788,-0.3679,-0.373,-0.3635,-0.3573,-0.3559,-0.3414,-0.3355,-0.301,-0.2975,-0.2961,-0.3383,-0.3385,-0.3387,0,-0.3236,-0.3393,-0.3418,-0.3469,-0.3597,-0.3598,-0.3647,-0.3686,-0.3665,-0.3664,-0.3591,-0.3618,-0.3553,-0.3496,-0.3476,-0.3515,-0.3284,-0.3297,-0.3165,-0.3159,-0.2925,-0.2904,-0.2806,-0.3166,-0.3167,-0.3167,-0.3168,0,-0.3177,-0.3179,-0.3327,-0.3331,-0.3283,-0.3448,-0.3382,-0.3432,-0.3445,-0.3394,-0.3496,-0.3433,-0.3462,-0.3373,-0.3365,-0.3211,-0.3187,-0.3155,-0.308,-0.2995,-0.2984,-0.2858,-0.2903,-0.3158,-0.316,-0.3162,-0.3163,0,-0.2956,-0.3093,-0.3089,-0.3188,-0.3204,-0.3151,-0.3208,-0.317,-0.323,-0.3154,-0.3147,-0.3204,-0.3138,-0.3151,-0.3023,-0.302,-0.2848,-0.2853,-0.2776,-0.27,-0.2593,-0.2653,-0.2424,-0.2361,-0.2634,-0.2631,-0.2628,0,-0.2849,-0.2837,-0.2898,-0.288,-0.2913,-0.2895,-0.2883,-0.3004,-0.2999,-0.3031,-0.2971,-0.2921,-0.2887,-0.2719,-0.2699,-0.2604,-0.2668,-0.2432,-0.2528,-0.2553,-0.2562,-0.2619,-0.2589,-0.2289,-0.2284,-0.228,-0.2277,0,-0.2582,-0.2612,-0.2606,-0.2577,-0.2571,-0.2561,-0.2589,-0.2552,-0.2709,-0.2674,-0.2665,-0.2641,-0.2551,-0.2439,-0.2355,-0.2314,-0.2383,-0.2343,-0.2348,-0.2273,-0.2335,-0.2249,-0.2521,-0.224,-0.2243,-0.2246,-0.2248,-0.225,-0.2338,-0.2268,-0.2296,-0.2253,-0.2261,-0.2259,-0.2197,-0.2278,-0.2251,-0.2241,-0.2343,-0.2277,-0.2258,-0.2137,-0.2095,-0.1981,-0.2082,-0.1943,-0.2003,-0.2051,-0.2032,-0.2255,-0.1924,-0.1926,-0.1927,-0.1929,-0.193,0,-0.2052,-0.2041,-0.1988,-0.1971,-0.1925,-0.2016,-0.2023,-0.1977,-0.1928,-0.1965,-0.1945,-0.1919,-0.1808,-0.1827,-0.1745,-0.1674,-0.1663,-0.1651,-0.1693,-0.1671,-0.18,-0.1832,-0.1489,-0.1489,-0.149,-0.149,-0.149,-0.149,-0.1909,-0.18,-0.181,-0.1677,-0.1671,-0.1585,-0.1569,-0.1535,-0.154,-0.1475,-0.148,-0.1531,-0.1591,-0.1716,-0.1626,-0.155,-0.1552,-0.1476,-0.1546,-0.1663,-0.1697,-0.1728,-0.1768,-0.1418,-0.1418,-0.1332,-0.1332,-0.1331]},{"header":{"parameterUnit":"m.s-1","parameterCategory":2,"la1":30.2991,"la2":30.254,"lo1":-89.0895,"lo2":-89.0444,"dy":0.0017,"dx":0.0017,"nx":28,"ny":28,"refTime":"2024-08-27T09:00:00:Z","depth":"0","parameterNumber":3,"parameterNumberName":"V-component_of_CURRENTS"},"data":[0,0,0,0,0,0,0,0,0,0,0,0,0,0,0,0,0,0,0,0,0,0,0,0,0,0,0,0,0,0,0,0,0,0,0,0,0,0,0,0,0,0,0,0,0,0,0,0,0,0,0,0,0,0,0,0,0,0,0.0061,0.0063,0,0.0201,0.0202,0.0204,0.0279,0.0279,0.028,0.028,0.0449,0.0453,0.0457,0,0,0,0,0,0,0,0,0,0,0,0,0,-0.0059,-0.0058,0.0061,0.0063,0.0065,0.02,0.0202,0.0204,0.0279,0.0279,0.028,0.028,0.0447,0.0452,0.0458,0,0,0,0,0,0,0,0,0,0,0,0,0,0.0027,-0.0058,0.0061,0.0119,0.0125,0.02,0.0202,0.0205,0.0279,0.0279,0.028,0.028,0.0446,0.0452,0.0458,0.0493,0,0,0.0478,0.0481,0,0,0,0,0,0,0,0,0.0022,0.0032,0.0108,0.0115,0.0122,0.0223,0.0222,0.0303,0.0279,0.0221,0.028,0.028,0.0376,0.0388,0.0413,0.0501,0.0508,0.0479,0.0483,0.0485,0.0487,0,0,0,0,0,0,0,0.0016,0.0027,0.0116,0.011,0.0119,0.0165,0.0177,0.0238,0.0295,0.0226,0.0232,0.0247,0.038,0.0407,0.0418,0.0511,0.0478,0.0484,0.0488,0.0491,0.0655,0.0656,0,0,0,0,0,0,-0.0005,0.0021,0.0112,0.0121,0.0072,0.0167,0.018,0.019,0.0294,0.031,0.0247,0.025,0.0395,0.041,0.0424,0.0473,0.0485,0.0491,0.0495,0.0655,0.0655,0.0656,0,0,0,0,0,0,-0.0008,0.0001,0.0106,0.0074,0.0091,0.0168,0.0179,0.0193,0.0218,0.031,0.0327,0.0257,0.0396,0.0415,0.0476,0.048,0.0494,0.05,0.0654,0.0655,0.0656,0.0571,0,0,0,0,0,0,-0.0013,-0.0001,-0.0007,0.0072,0.0092,0.0133,0.018,0.0195,0.0227,0.0233,0.0325,0.0341,0.0398,0.0466,0.0482,0.0489,0.0505,0.0654,0.0655,0.0655,0.0573,0.0569,0.0565,0,0,0,0,0,-0.0018,-0.0029,-0.0008,0.0003,0.0083,0.0132,0.0145,0.0202,0.0227,0.0228,0.0298,0.0338,0.0484,0.0471,0.0491,0.05,0.0653,0.0654,0.0655,0.0575,0.0569,0.0565,0,0,0,0,0,0,-0.0095,-0.0019,0.0005,0.0014,0.0061,0.0144,0.015,0.0194,0.0251,0.0256,0.0345,0.0365,0.0419,0.0473,0.0457,0.0551,0.0575,0.058,0.0507,0.0503,0.0499,0.0474,0.0511,0,0,0,0,0,-0.0114,-0.0097,-0.0024,-0.0022,-0.0002,0.0072,0.0098,0.0137,0.0202,0.0227,0.0294,0.0369,0.044,0.0479,0.054,0.0593,0.0619,0.0613,0.0609,0.0605,0.0599,0.0633,0.0631,0.0659,0.0659,0.0659,0,0,-0.0147,-0.0101,-0.0095,-0.0036,0.0004,0.0026,0.0088,0.0116,0.0144,0.0237,0.0284,0.0351,0.0449,0.0506,0.0536,0.0551,0.0609,0.0606,0.0602,0.0598,0.0634,0.0631,0.0628,0.066,0.066,0.066,0,0,-0.0212,-0.0164,-0.0178,-0.0132,-0.0075,-0.002,-0.0017,0.006,0.01,0.0157,0.0233,0.0303,0.0403,0.0477,0.053,0.0543,0.058,0.0561,0.0529,0.0562,0.0559,0.0557,0.0571,0.0571,0.0566,0.0566,0.0566,0,-0.0262,-0.0251,-0.0179,-0.0171,-0.0138,-0.0047,-0.0051,0.0009,0.0097,0.0128,0.0155,0.0313,0.0393,0.0483,0.0493,0.0533,0.0544,0.0536,0.0553,0.0551,0.0551,0.0567,0.0568,0.0562,0.0562,0.0563,0.0563,0,-0.0323,-0.031,-0.0313,-0.0265,-0.0227,-0.021,-0.0117,-0.008,-0.0017,0.0048,0.0133,0.0248,0.0339,0.0384,0.0449,0.0497,0.0502,0.0533,0.0555,0.0542,0.0561,0.0563,0.0556,0.0557,0.0559,0.056,0,0,-0.045,-0.0375,-0.0377,-0.0361,-0.0268,-0.0244,-0.0197,-0.0128,-0.0101,-0.0002,0.0036,0.0186,0.0242,0.0307,0.0399,0.0449,0.0463,0.0483,0.0486,0.0479,0.0511,0.0571,0.058,0.0484,0.0485,0.0485,0.0519,0,-0.0526,-0.0538,-0.0466,-0.0464,-0.0459,-0.0346,-0.0308,-0.0229,-0.0149,-0.0091,0.0046,0.0117,0.0218,0.0257,0.0324,0.0429,0.0468,0.045,0.0542,0.0545,0.0585,0.0585,0.0628,0.0667,0.0522,0.0523,0.0523,0,-0.0611,-0.0599,-0.062,-0.055,-0.0539,-0.0515,-0.0435,-0.0385,-0.0269,-0.0211,-0.0113,-0.0012,0.0106,0.0174,0.0337,0.0313,0.0398,0.0478,0.0482,0.057,0.0611,0.0664,0.0678,0.0841,0.0527,0.0527,0.0526,0,-0.0731,-0.0701,-0.0718,-0.069,-0.0605,-0.059,-0.0541,-0.0436,-0.0391,-0.0293,-0.0259,-0.0115,-0.0039,0.0087,0.0286,0.0291,0.0444,0.047,0.0603,0.0607,0.0681,0.0692,0.0851,0.0556,0.0555,0.0555,0.0555,0,-0.0821,-0.083,-0.0776,-0.0775,-0.0778,-0.0693,-0.0676,-0.0604,-0.0521,-0.047,-0.0332,-0.0259,-0.006,0.0076,0.0231,0.0435,0.0401,0.0594,0.0625,0.0653,0.0661,0.0838,0.0897,0.0557,0.0556,0.0556,0.0556,0,-0.0922,-0.0898,-0.09,-0.0844,-0.0829,-0.0827,-0.0748,-0.0732,-0.0649,-0.0585,-0.056,-0.038,-0.0195,0.0014,0.0227,0.0372,0.0655,0.0626,0.0642,0.0676,0.0948,0.0999,0.116,0.1262,0.0756,0.0757,0.0759,0,-0.0966,-0.0983,-0.0949,-0.0952,-0.0921,-0.0904,-0.0889,-0.0807,-0.0774,-0.0633,-0.0607,-0.0429,-0.0253,0.0078,0.0349,0.0607,0.0739,0.0784,0.0821,0.0974,0.1053,0.1079,0.1155,0.0874,0.0876,0.0878,0.088,0,-0.1017,-0.1006,-0.0997,-0.1013,-0.1011,-0.1003,-0.097,-0.0963,-0.0856,-0.0782,-0.0638,-0.0496,-0.0154,0.0189,0.0523,0.068,0.0908,0.0832,0.0993,0.1165,0.12,0.1309,0.0824,0.0897,0.0895,0.0894,0.0893,0.0892,-0.103,-0.1038,-0.1031,-0.1039,-0.1058,-0.1071,-0.1052,-0.1004,-0.094,-0.0783,-0.0656,-0.0399,0.0071,0.0569,0.0753,0.1131,0.1078,0.1243,0.1289,0.1298,0.142,0.0968,0.1082,0.1081,0.1081,0.108,0.108,0,-0.1026,-0.1033,-0.1049,-0.1064,-0.1095,-0.1093,-0.1074,-0.1028,-0.0935,-0.0766,-0.0581,-0.0046,0.0424,0.0842,0.1374,0.1582,0.1626,0.1667,0.172,0.1776,0.1385,0.1418,0.1608,0.1608,0.1608,0.1607,0.1607,0.1607,-0.1023,-0.1029,-0.1038,-0.1078,-0.1098,-0.1102,-0.1086,-0.1001,-0.0866,-0.0542,-0.0237,0.0018,0.0613,0.1459,0.1948,0.1985,0.2171,0.2132,0.2235,0.1975,0.1939,0.1904,0.1953,0.2252,0.2252,0.2624,0.2628,0.2631]}],[{"header":{"parameterUnit":"m.s-1","parameterCategory":2,"la1":30.2991,"la2":30.254,"lo1":-89.0895,"lo2":-89.0444,"dy":0.0017,"dx":0.0017,"nx":28,"ny":28,"refTime":"2024-08-27T09:00:00:Z","depth":"2","parameterNumber":2,"parameterNumberName":"U-component_of_CURRENTS"},"data":[0,0,0,0,0,0,0,0,0,0,0,0,0,0,0,0,0,0,0,0,0,0,0,0,0,0,0,0,0,0,0,0,0,0,0,0,0,0,0,0,0,0,0,0,0,0,0,0,0,0,0,0,0,0,0,0,0,0,-0.2534,-0.2536,0,-0.2809,-0.2813,-0.2818,-0.2988,-0.2987,-0.2986,-0.2986,-0.2969,-0.2969,-0.2969,0,0,0,0,0,0,0,0,0,0,0,0,0,-0.2564,-0.2561,-0.2534,-0.2536,-0.2538,-0.2808,-0.2814,-0.2819,-0.2988,-0.2987,-0.2986,-0.2986,-0.2969,-0.2969,-0.2969,0,0,0,0,0,0,0,0,0,0,0,0,0,-0.268,-0.256,-0.2534,-0.2643,-0.2654,-0.2807,-0.2814,-0.282,-0.2988,-0.2987,-0.2986,-0.2985,-0.2969,-0.2969,-0.2969,-0.2987,0,0,-0.297,-0.297,0,0,0,0,0,0,0,0,-0.2673,-0.268,-0.2625,-0.2636,-0.2648,-0.2849,-0.2818,-0.2856,-0.2988,-0.2878,-0.2986,-0.2985,-0.2892,-0.2898,-0.2979,-0.2986,-0.2986,-0.297,-0.297,-0.297,-0.297,0,0,0,0,0,0,0,-0.2664,-0.2672,-0.2659,-0.2627,-0.2641,-0.2817,-0.2831,-0.283,-0.2893,-0.2888,-0.2897,-0.2902,-0.2898,-0.2979,-0.2978,-0.2985,-0.297,-0.297,-0.297,-0.297,-0.305,-0.3052,0,0,0,0,0,0,-0.2576,-0.2661,-0.265,-0.2666,-0.2641,-0.2814,-0.2831,-0.2799,-0.29,-0.2913,-0.2902,-0.2908,-0.2979,-0.2978,-0.2978,-0.3034,-0.297,-0.297,-0.297,-0.3048,-0.3051,-0.3053,0,0,0,0,0,0,-0.2575,-0.2571,-0.2639,-0.2661,-0.2679,-0.281,-0.2776,-0.2804,-0.2894,-0.2912,-0.2922,-0.296,-0.2979,-0.2978,-0.3003,-0.3031,-0.297,-0.297,-0.3046,-0.3049,-0.3052,-0.3123,0,0,0,0,0,0,-0.2575,-0.2569,-0.2562,-0.2652,-0.2674,-0.268,-0.2776,-0.281,-0.2889,-0.2901,-0.2963,-0.2962,-0.2978,-0.3003,-0.3003,-0.303,-0.297,-0.3043,-0.3047,-0.3051,-0.3118,-0.3128,-0.3136,0,0,0,0,0,-0.2574,-0.2587,-0.2559,-0.256,-0.2642,-0.2676,-0.2705,-0.2811,-0.2892,-0.29,-0.2987,-0.2961,-0.3027,-0.3005,-0.3004,-0.3032,-0.3041,-0.3046,-0.3051,-0.3113,-0.3126,-0.3136,0,0,0,0,0,0,-0.2563,-0.2605,-0.2578,-0.2585,-0.2584,-0.2697,-0.2761,-0.2816,-0.2912,-0.2939,-0.2985,-0.2989,-0.3038,-0.3017,-0.2992,-0.307,-0.303,-0.3035,-0.3078,-0.3089,-0.3098,-0.3012,-0.297,0,0,0,0,0,-0.2546,-0.2619,-0.2578,-0.26,-0.258,-0.2667,-0.2718,-0.2754,-0.2829,-0.2879,-0.2941,-0.3002,-0.3061,-0.3056,-0.31,-0.3114,-0.3047,-0.3134,-0.3143,-0.3151,-0.3083,-0.3045,-0.3043,-0.3068,-0.3068,-0.3068,0,0,-0.2567,-0.2595,-0.2637,-0.2613,-0.265,-0.2667,-0.2702,-0.2747,-0.2818,-0.2848,-0.3001,-0.304,-0.3081,-0.314,-0.3154,-0.3115,-0.3117,-0.3157,-0.3163,-0.3088,-0.3049,-0.3046,-0.3043,-0.3071,-0.3071,-0.307,0,0,-0.2637,-0.2621,-0.2673,-0.2678,-0.2677,-0.2705,-0.2697,-0.2765,-0.2834,-0.2952,-0.3005,-0.3026,-0.317,-0.3153,-0.3181,-0.3244,-0.319,-0.3293,-0.3239,-0.3207,-0.3203,-0.3198,-0.3133,-0.3122,-0.3271,-0.3271,-0.3271,0,-0.2641,-0.2669,-0.2687,-0.2711,-0.273,-0.2711,-0.2714,-0.2796,-0.2892,-0.2915,-0.3001,-0.3166,-0.3175,-0.3187,-0.3222,-0.3255,-0.323,-0.32,-0.3214,-0.3208,-0.3201,-0.3135,-0.3122,-0.3275,-0.3274,-0.3274,-0.3274,0,-0.2703,-0.2741,-0.2771,-0.2801,-0.2811,-0.282,-0.2833,-0.2877,-0.2982,-0.3044,-0.3119,-0.3172,-0.322,-0.3262,-0.3277,-0.3228,-0.3225,-0.3254,-0.3174,-0.3202,-0.3133,-0.3117,-0.3281,-0.3279,-0.3278,-0.3277,0,0,-0.2656,-0.2786,-0.2793,-0.2803,-0.2845,-0.2831,-0.2926,-0.2923,-0.2959,-0.309,-0.3139,-0.3239,-0.3211,-0.3228,-0.3219,-0.3172,-0.3121,-0.3185,-0.3182,-0.3096,-0.3036,-0.2974,-0.295,-0.318,-0.3177,-0.3175,-0.3013,0,-0.2664,-0.273,-0.2805,-0.286,-0.2852,-0.2885,-0.2962,-0.2982,-0.3058,-0.3103,-0.3122,-0.3183,-0.3222,-0.3221,-0.3188,-0.3142,-0.308,-0.3159,-0.3037,-0.303,-0.2953,-0.293,-0.2744,-0.2578,-0.2997,-0.2994,-0.2992,0,-0.2652,-0.2701,-0.2743,-0.2835,-0.2822,-0.2863,-0.2876,-0.2942,-0.2983,-0.3052,-0.3078,-0.3114,-0.3045,-0.3106,-0.3008,-0.3074,-0.3028,-0.3003,-0.2998,-0.2878,-0.2937,-0.2615,-0.2533,-0.2965,-0.2967,-0.2969,-0.2971,0,-0.254,-0.2654,-0.2682,-0.2717,-0.2803,-0.2819,-0.2848,-0.2899,-0.2918,-0.2962,-0.2979,-0.2979,-0.2954,-0.2933,-0.2908,-0.2956,-0.2807,-0.2872,-0.2759,-0.2755,-0.2526,-0.2505,-0.2763,-0.2764,-0.2764,-0.2764,-0.2765,0,-0.2497,-0.2517,-0.2632,-0.2633,-0.2626,-0.2726,-0.2712,-0.2764,-0.2811,-0.2801,-0.2892,-0.2878,-0.2915,-0.287,-0.2858,-0.2748,-0.277,-0.2692,-0.2693,-0.2553,-0.2537,-0.2817,-0.2826,-0.2758,-0.276,-0.2761,-0.2762,0,-0.2358,-0.2463,-0.2474,-0.2555,-0.2574,-0.2549,-0.2606,-0.2602,-0.2679,-0.2666,-0.2673,-0.2748,-0.2713,-0.2727,-0.2664,-0.2646,-0.2575,-0.2527,-0.2347,-0.2328,-0.255,-0.2564,-0.2357,-0.2353,-0.235,-0.2347,-0.2345,0,-0.2292,-0.2292,-0.2354,-0.2351,-0.2382,-0.2387,-0.2393,-0.2499,-0.2514,-0.2587,-0.2562,-0.2555,-0.2533,-0.2429,-0.2395,-0.2318,-0.244,-0.2105,-0.2144,-0.2477,-0.25,-0.252,-0.2539,-0.1875,-0.1869,-0.1864,-0.186,0,-0.2119,-0.215,-0.215,-0.2148,-0.2158,-0.2163,-0.2197,-0.219,-0.2322,-0.2322,-0.2336,-0.2323,-0.2268,-0.2124,-0.2054,-0.2007,-0.2116,-0.2002,-0.2355,-0.2035,-0.2017,-0.2043,-0.2077,-0.1816,-0.1821,-0.1824,-0.1826,-0.1828,-0.1961,-0.1922,-0.1942,-0.1925,-0.1944,-0.1944,-0.1892,-0.196,-0.195,-0.1952,-0.2056,-0.1979,-0.1999,-0.179,-0.1713,-0.1663,-0.1813,-0.175,-0.1766,-0.1788,-0.1789,-0.1769,-0.1519,-0.1522,-0.1524,-0.1526,-0.1528,0,-0.1759,-0.175,-0.1726,-0.1714,-0.1675,-0.1752,-0.1761,-0.1706,-0.1653,-0.1688,-0.1667,-0.1513,-0.1414,-0.1451,-0.1295,-0.128,-0.1288,-0.1242,-0.1251,-0.1294,-0.1332,-0.1314,-0.0915,-0.0913,-0.0912,-0.0911,0,0,-0.1651,-0.1572,-0.1577,-0.1465,-0.146,-0.1373,-0.135,-0.1301,-0.1294,-0.1207,-0.1173,-0.1277,-0.1361,-0.1121,-0.1083,-0.0966,-0.1119,-0.0919,-0.1404,-0.1452,-0.1488,-0.1611,-0.1628,0,0,0,0,0]},{"header":{"parameterUnit":"m.s-1","parameterCategory":2,"la1":30.2991,"la2":30.254,"lo1":-89.0895,"lo2":-89.0444,"dy":0.0017,"dx":0.0017,"nx":28,"ny":28,"refTime":"2024-08-27T09:00:00:Z","depth":"2","parameterNumber":3,"parameterNumberName":"V-component_of_CURRENTS"},"data":[0,0,0,0,0,0,0,0,0,0,0,0,0,0,0,0,0,0,0,0,0,0,0,0,0,0,0,0,0,0,0,0,0,0,0,0,0,0,0,0,0,0,0,0,0,0,0,0,0,0,0,0,0,0,0,0,0,0,-0.0152,-0.0151,0,-0.0028,-0.0026,-0.0024,0.0061,0.0061,0.0061,0.0061,0.0188,0.0191,0.0194,0,0,0,0,0,0,0,0,0,0,0,0,0,-0.0166,-0.0166,-0.0152,-0.0151,-0.015,-0.0029,-0.0026,-0.0024,0.0061,0.0061,0.0061,0.0061,0.0187,0.0191,0.0195,0,0,0,0,0,0,0,0,0,0,0,0,0,-0.0107,-0.0167,-0.0152,-0.0097,-0.0091,-0.0029,-0.0026,-0.0023,0.0061,0.0061,0.0061,0.0062,0.0186,0.019,0.0195,0.0223,0,0,0.021,0.0212,0,0,0,0,0,0,0,0,-0.0111,-0.0106,-0.0106,-0.0101,-0.0094,-0.0004,0.0015,0.0057,0.0061,0.001,0.0061,0.0062,0.012,0.013,0.0162,0.0229,0.0235,0.0211,0.0214,0.0216,0.0217,0,0,0,0,0,0,0,-0.0115,-0.011,-0.0096,-0.0105,-0.0098,-0.0029,-0.0021,0.0025,0.0067,0.0014,0.0019,0.0023,0.0124,0.0157,0.0165,0.0236,0.0211,0.0215,0.0218,0.022,0.04,0.0402,0,0,0,0,0,0,-0.0151,-0.0115,-0.0101,-0.0093,-0.0109,-0.003,-0.002,-0.0028,0.0067,0.008,0.0023,0.0026,0.0148,0.016,0.017,0.023,0.0216,0.022,0.0223,0.0399,0.0401,0.0403,0,0,0,0,0,0,-0.0152,-0.0151,-0.0106,-0.0105,-0.0095,-0.0031,-0.0039,-0.0026,0.0012,0.0072,0.0087,0.0046,0.0149,0.0163,0.0222,0.0234,0.0223,0.0227,0.0397,0.0399,0.0402,0.0336,0,0,0,0,0,0,-0.0153,-0.0153,-0.0163,-0.0109,-0.0097,-0.0097,-0.004,-0.0024,0.001,0.0017,0.0097,0.0109,0.015,0.0214,0.0226,0.0241,0.0231,0.0394,0.0398,0.0401,0.0336,0.0336,0.0336,0,0,0,0,0,-0.0154,-0.0164,-0.0165,-0.0162,-0.0117,-0.0099,-0.0087,-0.0034,0.0011,0.0007,0.0087,0.0107,0.0245,0.0219,0.0233,0.0249,0.0393,0.0397,0.0401,0.0335,0.0336,0.0336,0,0,0,0,0,0,-0.0184,-0.0155,-0.0155,-0.016,-0.0151,-0.0088,-0.0072,-0.0035,0.003,0.0045,0.0121,0.0138,0.0207,0.0239,0.0209,0.0318,0.0326,0.0333,0.0272,0.0273,0.0273,0.0201,0.0235,0,0,0,0,0,-0.02,-0.0193,-0.0177,-0.0186,-0.0181,-0.0126,-0.0105,-0.0081,-0.0022,0.0007,0.007,0.0151,0.0236,0.0259,0.033,0.0369,0.0387,0.0396,0.0396,0.0396,0.0352,0.0409,0.0408,0.0416,0.0416,0.0416,0,0,-0.022,-0.0198,-0.0201,-0.0191,-0.0165,-0.0168,-0.0111,-0.0096,-0.0079,0.001,0.007,0.0156,0.0254,0.0316,0.0347,0.0337,0.041,0.0401,0.0399,0.0355,0.0413,0.0412,0.041,0.0419,0.0419,0.0418,0,0,-0.0261,-0.0237,-0.0256,-0.024,-0.0224,-0.0193,-0.0196,-0.0145,-0.0102,-0.0037,0.0048,0.0121,0.0246,0.0297,0.0351,0.039,0.0424,0.0436,0.0356,0.0413,0.0411,0.041,0.0443,0.0444,0.0417,0.0417,0.0417,0,-0.0294,-0.0305,-0.0263,-0.027,-0.0256,-0.0211,-0.0231,-0.0182,-0.0115,-0.008,-0.0028,0.0167,0.0236,0.0313,0.0327,0.0383,0.0416,0.0341,0.0407,0.0406,0.0406,0.044,0.0443,0.0415,0.0415,0.0415,0.0415,0,-0.035,-0.0351,-0.0352,-0.0347,-0.0333,-0.0335,-0.0287,-0.0258,-0.0179,-0.0124,-0.0016,0.0095,0.0194,0.025,0.0301,0.0338,0.0365,0.0412,0.0389,0.04,0.0437,0.0441,0.0411,0.0412,0.0413,0.0413,0,0,-0.045,-0.0406,-0.0408,-0.0404,-0.0366,-0.0361,-0.0332,-0.0298,-0.0263,-0.0166,-0.0108,0.0036,0.0088,0.0149,0.0227,0.026,0.0295,0.0313,0.0317,0.0311,0.0406,0.0445,0.0454,0.0359,0.0359,0.0359,0.0435,0,-0.0516,-0.0538,-0.0493,-0.0507,-0.0514,-0.0444,-0.0417,-0.0371,-0.0287,-0.0221,-0.0103,-0.0008,0.0057,0.0111,0.0153,0.0274,0.0301,0.0268,0.0423,0.0426,0.0433,0.0458,0.0427,0.0494,0.0439,0.044,0.044,0,-0.0596,-0.0587,-0.062,-0.0567,-0.0564,-0.0563,-0.0503,-0.0471,-0.0375,-0.0302,-0.0215,-0.0111,-0.0041,0.0028,0.0175,0.0156,0.0249,0.0335,0.0342,0.0389,0.0473,0.0478,0.0503,0.0447,0.0447,0.0446,0.0446,0,-0.0682,-0.067,-0.069,-0.0674,-0.0624,-0.0614,-0.0583,-0.0505,-0.0464,-0.037,-0.0319,-0.0204,-0.0126,-0.0004,0.0169,0.0176,0.0336,0.0383,0.0499,0.0503,0.0506,0.051,0.0463,0.0462,0.0462,0.0462,0.0462,0,-0.0754,-0.0764,-0.0731,-0.0733,-0.074,-0.0684,-0.0669,-0.0614,-0.0543,-0.0498,-0.038,-0.0312,-0.0129,0.0002,0.014,0.0329,0.0321,0.0466,0.0523,0.0488,0.0489,0.0471,0.0471,0.0465,0.0464,0.0464,0.0463,0,-0.0833,-0.0819,-0.0827,-0.0789,-0.0781,-0.0783,-0.0726,-0.071,-0.0636,-0.0577,-0.0551,-0.0394,-0.0219,-0.0032,0.0182,0.0304,0.0476,0.0542,0.0474,0.0521,0.0603,0.0599,0.0665,0.0667,0.0668,0.067,0.0671,0,-0.0873,-0.0889,-0.0869,-0.0876,-0.0858,-0.0848,-0.0841,-0.0771,-0.0742,-0.0613,-0.0589,-0.0419,-0.027,0.0048,0.0281,0.052,0.0525,0.0622,0.0626,0.0572,0.0623,0.0616,0.061,0.0612,0.0612,0.0613,0.0613,0,-0.0922,-0.0916,-0.0915,-0.0932,-0.0939,-0.0935,-0.0911,-0.0903,-0.0811,-0.0745,-0.0618,-0.0493,-0.0182,0.0092,0.0395,0.0525,0.058,0.0641,0.0619,0.0567,0.053,0.0577,0.0571,0.0617,0.0617,0.0617,0.0616,0.0616,-0.0945,-0.0957,-0.0956,-0.0969,-0.0989,-0.1001,-0.0986,-0.0947,-0.0894,-0.0757,-0.0644,-0.0422,-0.0171,0.0275,0.0482,0.0663,0.0664,0.071,0.0706,0.0701,0.0683,0.0652,0.0757,0.0757,0.0757,0.0758,0.0758,0,-0.0955,-0.0963,-0.0983,-0.1002,-0.1031,-0.1028,-0.1014,-0.0973,-0.0899,-0.075,-0.0593,-0.0298,0.0013,0.0267,0.0576,0.0758,0.0728,0.0766,0.07,0.0694,0.069,0.0669,0.074,0.0741,0.0741,0.0742,0,0,-0.096,-0.0973,-0.0981,-0.1025,-0.1044,-0.1053,-0.1039,-0.0965,-0.0846,-0.0682,-0.0509,-0.0277,0.0037,0.0252,0.0469,0.0624,0.0606,0.0621,0.0616,0.0506,0.05,0.0638,0.0598,0,0,0,0,0]}],[{"header":{"parameterUnit":"m.s-1","parameterCategory":2,"la1":30.2991,"la2":30.254,"lo1":-89.0895,"lo2":-89.0444,"dy":0.0017,"dx":0.0017,"nx":28,"ny":28,"refTime":"2024-08-27T09:00:00:Z","depth":"4","parameterNumber":2,"parameterNumberName":"U-component_of_CURRENTS"},"data":[0,0,0,0,0,0,0,0,0,0,0,0,0,0,0,0,0,0,0,0,0,0,0,0,0,0,0,0,0,0,0,0,0,0,0,0,0,0,0,0,0,0,0,0,0,0,0,0,0,0,0,0,0,0,0,0,0,0,-0.1192,-0.1193,0,-0.128,-0.128,-0.1281,-0.1307,-0.1307,-0.1307,-0.1307,-0.1379,-0.1381,-0.1383,0,0,0,0,0,0,0,0,0,0,0,0,0,-0.1071,-0.1072,-0.1192,-0.1193,-0.1195,-0.1279,-0.128,-0.1281,-0.1307,-0.1307,-0.1307,-0.1307,-0.1379,-0.1381,-0.1383,0,0,0,0,0,0,0,0,0,0,0,0,0,-0.1133,-0.1073,-0.1191,-0.1221,-0.1225,-0.1279,-0.128,-0.1281,-0.1307,-0.1307,-0.1307,-0.1307,-0.1378,-0.1381,-0.1384,-0.1404,0,0,-0.1393,-0.1394,0,0,0,0,0,0,0,0,-0.113,-0.1137,-0.1215,-0.1219,-0.1223,-0.1286,-0.1265,-0.1323,-0.1307,-0.1272,-0.1307,-0.1307,-0.1349,-0.1355,-0.1366,-0.1407,-0.1411,-0.1393,-0.1395,-0.1396,-0.1397,0,0,0,0,0,0,0,-0.1125,-0.1134,-0.1222,-0.1217,-0.1222,-0.1239,-0.1247,-0.1276,-0.1306,-0.1275,-0.1278,-0.1294,-0.1351,-0.1363,-0.1368,-0.1412,-0.1393,-0.1396,-0.1397,-0.1399,-0.1534,-0.1535,0,0,0,0,0,0,-0.1122,-0.113,-0.1219,-0.1225,-0.118,-0.1241,-0.125,-0.1263,-0.1307,-0.1315,-0.1294,-0.1295,-0.1358,-0.1364,-0.137,-0.1448,-0.1396,-0.1399,-0.1401,-0.1532,-0.1534,-0.1536,0,0,0,0,0,0,-0.1119,-0.1129,-0.1216,-0.1183,-0.1196,-0.1243,-0.1257,-0.1265,-0.1299,-0.1322,-0.1329,-0.1324,-0.1358,-0.1366,-0.142,-0.1449,-0.14,-0.1403,-0.153,-0.1533,-0.1535,-0.157,0,0,0,0,0,0,-0.1115,-0.1127,-0.1143,-0.1183,-0.1198,-0.1267,-0.1258,-0.1266,-0.1309,-0.1312,-0.135,-0.1355,-0.1359,-0.1415,-0.1423,-0.1452,-0.1405,-0.1527,-0.1531,-0.1534,-0.1566,-0.1573,-0.1579,0,0,0,0,0,-0.111,-0.1128,-0.1143,-0.1154,-0.1214,-0.1269,-0.1278,-0.1308,-0.1311,-0.1336,-0.1361,-0.1355,-0.1442,-0.142,-0.1428,-0.1458,-0.1526,-0.153,-0.1534,-0.1564,-0.1572,-0.1579,0,0,0,0,0,0,-0.1094,-0.1134,-0.115,-0.1183,-0.1233,-0.1275,-0.1307,-0.1323,-0.1363,-0.1373,-0.138,-0.1389,-0.1451,-0.1452,-0.1427,-0.1509,-0.1482,-0.1488,-0.1502,-0.151,-0.1517,-0.1533,-0.1408,0,0,0,0,0,-0.1096,-0.1115,-0.1166,-0.1199,-0.1227,-0.1271,-0.1299,-0.1326,-0.1364,-0.1382,-0.1408,-0.1438,-0.1471,-0.1488,-0.1524,-0.1565,-0.1573,-0.159,-0.1597,-0.1602,-0.1622,-0.1658,-0.1669,-0.1549,-0.1549,-0.1549,0,0,-0.1099,-0.1127,-0.1139,-0.1196,-0.1238,-0.1288,-0.1288,-0.1348,-0.1385,-0.1384,-0.1447,-0.1472,-0.1492,-0.1543,-0.1569,-0.1547,-0.1639,-0.1607,-0.1611,-0.1629,-0.1663,-0.1675,-0.1685,-0.1552,-0.1552,-0.1551,0,0,-0.1135,-0.1146,-0.1188,-0.1226,-0.1298,-0.1318,-0.134,-0.1402,-0.1427,-0.1488,-0.1498,-0.1542,-0.1592,-0.1609,-0.1621,-0.1686,-0.1681,-0.1698,-0.1733,-0.1767,-0.1777,-0.1786,-0.1799,-0.1809,-0.1689,-0.1689,-0.1689,0,-0.1149,-0.1198,-0.1213,-0.127,-0.1308,-0.1334,-0.1398,-0.1421,-0.1491,-0.1521,-0.1518,-0.1611,-0.1623,-0.1678,-0.1698,-0.1701,-0.1716,-0.1696,-0.1774,-0.1783,-0.1792,-0.1804,-0.1814,-0.1691,-0.1691,-0.1691,-0.1691,0,-0.1219,-0.1264,-0.1295,-0.1362,-0.1401,-0.1457,-0.1495,-0.1533,-0.1559,-0.159,-0.1668,-0.1689,-0.1743,-0.1747,-0.1742,-0.181,-0.18,-0.1785,-0.175,-0.1806,-0.1815,-0.1825,-0.1694,-0.1694,-0.1693,-0.1692,0,0,-0.1231,-0.1328,-0.134,-0.1384,-0.1453,-0.149,-0.1546,-0.1609,-0.165,-0.1701,-0.1771,-0.1812,-0.1832,-0.1849,-0.1849,-0.1869,-0.1927,-0.1856,-0.1856,-0.1861,-0.1998,-0.1822,-0.1816,-0.1927,-0.1929,-0.1931,-0.1975,0,-0.1293,-0.1397,-0.1434,-0.1522,-0.157,-0.1602,-0.165,-0.1702,-0.1737,-0.1802,-0.1827,-0.1893,-0.1864,-0.1898,-0.1919,-0.1937,-0.1959,-0.1916,-0.1952,-0.1953,-0.1782,-0.1823,-0.1939,-0.1983,-0.1985,-0.1987,-0.1988,0,-0.1345,-0.14,-0.151,-0.159,-0.162,-0.1676,-0.1744,-0.1798,-0.187,-0.1905,-0.1964,-0.1988,-0.2042,-0.2007,-0.2056,-0.2034,-0.2033,-0.2027,-0.2029,-0.1863,-0.1795,-0.192,-0.2006,-0.2005,-0.2003,-0.2002,-0.2001,0,-0.1325,-0.1442,-0.1527,-0.1558,-0.166,-0.1716,-0.1768,-0.1837,-0.188,-0.1979,-0.2017,-0.2086,-0.2119,-0.2144,-0.2115,-0.2109,-0.2151,-0.2136,-0.1977,-0.1964,-0.2094,-0.2084,-0.2184,-0.2184,-0.2184,-0.2184,-0.2184,0,-0.1349,-0.1413,-0.1526,-0.1572,-0.1648,-0.1728,-0.1816,-0.1868,-0.1959,-0.2002,-0.2075,-0.2096,-0.2157,-0.2169,-0.2159,-0.2077,-0.2184,-0.1995,-0.1967,-0.2105,-0.2097,-0.21,-0.2089,-0.2186,-0.2185,-0.2185,-0.2185,0,-0.1322,-0.1408,-0.1492,-0.1613,-0.1649,-0.1703,-0.182,-0.1859,-0.1961,-0.202,-0.2055,-0.2126,-0.2125,-0.2143,-0.217,-0.2095,-0.2062,-0.2009,-0.2149,-0.2127,-0.1852,-0.1843,-0.186,-0.1854,-0.1849,-0.1845,-0.1841,0,-0.1316,-0.1368,-0.1497,-0.1526,-0.1591,-0.1677,-0.1719,-0.184,-0.1871,-0.1995,-0.2,-0.2053,-0.207,-0.1961,-0.2009,-0.1974,-0.194,-0.1925,-0.19,-0.1849,-0.1821,-0.182,-0.1818,-0.1834,-0.1832,-0.1831,-0.183,0,-0.1283,-0.135,-0.1409,-0.1464,-0.152,-0.1573,-0.1647,-0.166,-0.1781,-0.1897,-0.1875,-0.1868,-0.1859,-0.1849,-0.1818,-0.1796,-0.1941,-0.1874,-0.1885,-0.1861,-0.1818,-0.1795,-0.1799,-0.1813,-0.1815,-0.1817,-0.1818,0,-0.1234,-0.1252,-0.1325,-0.1359,-0.142,-0.1426,-0.1493,-0.1514,-0.1565,-0.1702,-0.169,-0.1744,-0.1829,-0.1755,-0.1734,-0.1686,-0.1667,-0.1621,-0.1645,-0.1664,-0.1574,-0.1489,-0.1367,0,0,0,0,0,-0.1156,-0.1163,-0.1198,-0.1221,-0.1281,-0.131,-0.141,-0.1478,-0.1602,-0.1531,-0.1604,-0.1582,-0.1547,-0.1586,-0.1492,-0.1651,-0.1677,-0.1538,-0.1638,-0.1719,-0.1739,-0.1648,0,0,0,0,0,0,-0.1092,-0.1134,-0.1151,-0.1093,-0.1083,-0.1122,-0.1178,-0.1269,-0.1242,-0.1379,-0.136,-0.1471,-0.1454,-0.1555,-0.145,-0.1461,-0.1489,-0.1587,-0.1583,-0.1708,-0.1726,-0.1741,-0.1655,0,0,0,0,0]},{"header":{"parameterUnit":"m.s-1","parameterCategory":2,"la1":30.2991,"la2":30.254,"lo1":-89.0895,"lo2":-89.0444,"dy":0.0017,"dx":0.0017,"nx":28,"ny":28,"refTime":"2024-08-27T09:00:00:Z","depth":"4","parameterNumber":3,"parameterNumberName":"V-component_of_CURRENTS"},"data":[0,0,0,0,0,0,0,0,0,0,0,0,0,0,0,0,0,0,0,0,0,0,0,0,0,0,0,0,0,0,0,0,0,0,0,0,0,0,0,0,0,0,0,0,0,0,0,0,0,0,0,0,0,0,0,0,0,0,-0.0226,-0.0226,0,-0.0222,-0.0222,-0.0222,-0.02,-0.0199,-0.0199,-0.0198,-0.0158,-0.0157,-0.0157,0,0,0,0,0,0,0,0,0,0,0,0,0,-0.023,-0.023,-0.0226,-0.0226,-0.0226,-0.0222,-0.0222,-0.0222,-0.02,-0.0199,-0.0199,-0.0198,-0.0158,-0.0157,-0.0157,0,0,0,0,0,0,0,0,0,0,0,0,0,-0.0227,-0.023,-0.0226,-0.0215,-0.0214,-0.0222,-0.0222,-0.0222,-0.02,-0.0199,-0.0198,-0.0198,-0.0158,-0.0157,-0.0157,-0.0166,0,0,-0.0154,-0.0153,0,0,0,0,0,0,0,0,-0.0227,-0.0227,-0.0216,-0.0216,-0.0214,-0.0211,-0.0209,-0.0201,-0.02,-0.0205,-0.0198,-0.0197,-0.0173,-0.0171,-0.0172,-0.0164,-0.0162,-0.0154,-0.0153,-0.0153,-0.0152,0,0,0,0,0,0,0,-0.0227,-0.0227,-0.0224,-0.0216,-0.0215,-0.0215,-0.0214,-0.0207,-0.0192,-0.0204,-0.0203,-0.0203,-0.0172,-0.0173,-0.0171,-0.0161,-0.0154,-0.0153,-0.0152,-0.0152,-0.0163,-0.0164,0,0,0,0,0,0,-0.0229,-0.0227,-0.0224,-0.0224,-0.022,-0.0216,-0.0214,-0.0212,-0.0193,-0.019,-0.0204,-0.0202,-0.0175,-0.0172,-0.0169,-0.0185,-0.0153,-0.0152,-0.0151,-0.0162,-0.0163,-0.0164,0,0,0,0,0,0,-0.0229,-0.0228,-0.0224,-0.0226,-0.0225,-0.0216,-0.0215,-0.0213,-0.0211,-0.0193,-0.0189,-0.0204,-0.0174,-0.017,-0.0165,-0.0183,-0.0151,-0.0151,-0.0161,-0.0162,-0.0164,-0.0212,0,0,0,0,0,0,-0.0229,-0.0228,-0.0231,-0.0226,-0.0225,-0.0233,-0.0215,-0.0213,-0.0213,-0.021,-0.0192,-0.0187,-0.0173,-0.0167,-0.0164,-0.0181,-0.015,-0.016,-0.0162,-0.0163,-0.0209,-0.0215,-0.022,0,0,0,0,0,-0.0229,-0.0233,-0.0231,-0.0231,-0.0228,-0.0234,-0.0234,-0.0225,-0.0213,-0.0219,-0.0204,-0.0188,-0.0175,-0.0167,-0.0164,-0.018,-0.0159,-0.0161,-0.0163,-0.0207,-0.0214,-0.0219,0,0,0,0,0,0,-0.0233,-0.0232,-0.0229,-0.0232,-0.0235,-0.023,-0.0237,-0.0228,-0.0222,-0.0218,-0.0196,-0.0191,-0.0194,-0.0181,-0.0172,-0.0189,-0.0166,-0.0167,-0.0201,-0.0207,-0.0212,-0.0204,-0.0149,0,0,0,0,0,-0.0237,-0.0243,-0.0241,-0.0246,-0.0249,-0.0244,-0.0246,-0.0239,-0.0232,-0.0229,-0.0219,-0.0208,-0.0201,-0.0198,-0.0191,-0.0199,-0.0142,-0.0209,-0.0214,-0.0219,-0.0211,-0.012,-0.0114,-0.017,-0.017,-0.017,0,0,-0.0244,-0.0241,-0.0247,-0.0248,-0.0251,-0.0269,-0.0243,-0.0249,-0.0259,-0.0226,-0.0239,-0.0224,-0.0207,-0.0216,-0.0217,-0.0206,-0.0177,-0.0221,-0.0225,-0.0214,-0.0121,-0.0115,-0.0109,-0.0172,-0.0171,-0.0171,0,0,-0.0266,-0.0257,-0.0276,-0.028,-0.0284,-0.0285,-0.0288,-0.0288,-0.0283,-0.0294,-0.027,-0.0262,-0.0264,-0.025,-0.0243,-0.0271,-0.0205,-0.0276,-0.0296,-0.0209,-0.0202,-0.0196,-0.0131,-0.0118,-0.0281,-0.0281,-0.0281,0,-0.0276,-0.029,-0.0282,-0.0299,-0.0305,-0.0296,-0.0317,-0.0318,-0.0316,-0.0303,-0.0306,-0.028,-0.0279,-0.026,-0.0284,-0.0281,-0.022,-0.0275,-0.0212,-0.0205,-0.0197,-0.0131,-0.0116,-0.0283,-0.0283,-0.0283,-0.0283,0,-0.0315,-0.0323,-0.0334,-0.0356,-0.0363,-0.0376,-0.0377,-0.038,-0.0376,-0.0364,-0.0343,-0.033,-0.0305,-0.0318,-0.0318,-0.0276,-0.0246,-0.0224,-0.0191,-0.0194,-0.0125,-0.0109,-0.0287,-0.0286,-0.0285,-0.0285,0,0,-0.0343,-0.0359,-0.0364,-0.0373,-0.0388,-0.0396,-0.0413,-0.0411,-0.0399,-0.0397,-0.0367,-0.0378,-0.0344,-0.0334,-0.0317,-0.0266,-0.0191,-0.0234,-0.0228,-0.016,0.0004,-0.0031,-0.0016,-0.0143,-0.014,-0.0138,0.0027,0,-0.0377,-0.0415,-0.0411,-0.0446,-0.0465,-0.0451,-0.0463,-0.0454,-0.0438,-0.0409,-0.0371,-0.0347,-0.0355,-0.0338,-0.0286,-0.0212,-0.0147,-0.0238,-0.0011,-0.0005,-0.0026,0.0002,-0.0129,0.0039,0.0043,0.0046,0.0048,0,-0.0422,-0.0435,-0.0478,-0.0474,-0.048,-0.0502,-0.0491,-0.0492,-0.0446,-0.0424,-0.0375,-0.0334,-0.0279,-0.0276,-0.0123,-0.0173,-0.0089,-0.0029,-0.002,-0.002,-0.0009,0.0046,0.0078,0.0076,0.0073,0.0071,0.007,0,-0.0457,-0.0475,-0.0508,-0.0514,-0.0522,-0.0528,-0.0527,-0.05,-0.0489,-0.0421,-0.0395,-0.0301,-0.026,-0.0133,-0.0045,-0.0059,0.0139,0.0145,0.0202,0.02,0.0205,0.0197,0.0286,0.0286,0.0285,0.0285,0.0284,0,-0.0495,-0.0517,-0.0527,-0.0548,-0.0567,-0.0555,-0.0558,-0.0539,-0.0497,-0.0473,-0.04,-0.0356,-0.0218,-0.0105,-0.0006,0.0137,0.0184,0.0213,0.0249,0.0176,0.0163,0.0217,0.0206,0.0291,0.029,0.0289,0.0287,0,-0.0539,-0.055,-0.0581,-0.0589,-0.0594,-0.0609,-0.0602,-0.0594,-0.0548,-0.0509,-0.0488,-0.0379,-0.0234,-0.0094,0.0108,0.0173,0.032,0.0365,0.0266,0.0292,0.0318,0.0303,0.0466,0.0467,0.0467,0.0467,0.0468,0,-0.0566,-0.0591,-0.062,-0.0639,-0.065,-0.0663,-0.0673,-0.0638,-0.0622,-0.0529,-0.0509,-0.0369,-0.0284,-0.0016,0.012,0.0343,0.0355,0.0438,0.0381,0.0322,0.0342,0.0326,0.0311,0.0468,0.0468,0.0468,0.0468,0,-0.0606,-0.0624,-0.0648,-0.0687,-0.0712,-0.0727,-0.0729,-0.0719,-0.0661,-0.0624,-0.0505,-0.0367,-0.0203,-0.0019,0.0149,0.0299,0.0387,0.0441,0.0442,0.0389,0.0326,0.0342,0.0327,0.0469,0.0469,0.0469,0.0469,0,-0.0629,-0.0656,-0.0688,-0.0715,-0.0756,-0.077,-0.0765,-0.0722,-0.0693,-0.0582,-0.0547,-0.0362,-0.0255,-0.004,0.0112,0.0255,0.0286,0.0323,0.033,0.0331,0.0219,0.0115,0.0241,0,0,0,0,0,-0.0639,-0.0667,-0.0702,-0.0734,-0.0778,-0.0792,-0.0791,-0.0772,-0.0718,-0.0639,-0.0585,-0.0429,-0.0188,-0.0084,0.0057,0.01,0.0294,0.0267,0.0336,0.0474,0.0473,0.036,0,0,0,0,0,0,-0.0644,-0.069,-0.0702,-0.0745,-0.0767,-0.0805,-0.0804,-0.0768,-0.0706,-0.0635,-0.0504,-0.0415,-0.0184,-0.0272,0.0052,0.0096,0.0154,0.0385,0.0388,0.0475,0.0474,0.0473,0.0356,0,0,0,0,0]}]]